[[{"header":{"parameterUnit":"m.s-1","parameterCategory":1,"la1":30.2991,"la2":30.254,"lo1":-89.0895,"lo2":-89.0444,"dy":0.0017,"dx":0.0017,"nx":28,"ny":28,"refTime":"2024-06-16T03:00:00:Z","depth":0,"parameterNumber":2,"parameterNumberName":"U-component_of_WINDS"},"data":[0,0,0,0,0,0,0,0,0,0,0,0,0,0,0,0,0,0,0,0,0,0,0,0,0,0,0,0,0,0,0,0,0,0,0,0,0,0,0,0,0,0,0,0,0,0,0,0,0,0,0,0,0,0,0,0,0,0,-2.6039,-2.6039,0,-2.6024,-2.6023,-2.6023,-2.597,-2.5968,-2.5967,-2.5966,-2.5953,-2.5953,-2.5954,0,0,0,0,0,0,0,0,0,0,0,0,0,-2.6025,-2.6026,-2.6039,-2.6039,-2.6038,-2.6024,-2.6023,-2.6023,-2.597,-2.5968,-2.5967,-2.5966,-2.5952,-2.5953,-2.5954,0,0,0,0,0,0,0,0,0,0,0,0,0,-2.6023,-2.6026,-2.6039,-2.601,-2.6007,-2.6024,-2.6023,-2.6023,-2.597,-2.5968,-2.5967,-2.5965,-2.5952,-2.5953,-2.5954,-2.5998,0,0,-2.5958,-2.5958,0,0,0,0,0,0,0,0,-2.6023,-2.6023,-2.6014,-2.6012,-2.6009,-2.5997,-2.6014,-2.6015,-2.5971,-2.5984,-2.5966,-2.5964,-2.5969,-2.5968,-2.597,-2.5997,-2.5997,-2.5958,-2.5959,-2.5959,-2.5959,0,0,0,0,0,0,0,-2.6023,-2.6024,-2.6033,-2.6014,-2.6011,-2.5999,-2.5997,-2.6014,-2.5987,-2.5983,-2.5979,-2.5978,-2.5967,-2.5969,-2.5969,-2.5996,-2.5958,-2.5959,-2.596,-2.596,-2.6062,-2.6064,0,0,0,0,0,0,-2.6027,-2.6024,-2.6033,-2.6032,-2.6012,-2.6001,-2.5998,-2.6002,-2.5987,-2.5983,-2.598,-2.5975,-2.5968,-2.5968,-2.5968,-2.6019,-2.5959,-2.596,-2.5961,-2.606,-2.6062,-2.6064,0,0,0,0,0,0,-2.6027,-2.6028,-2.6034,-2.6027,-2.6027,-2.6003,-2.6008,-2.6003,-2.6005,-2.5984,-2.5979,-2.5986,-2.5966,-2.5967,-2.5991,-2.6018,-2.5961,-2.5962,-2.6057,-2.6061,-2.6063,-2.6121,0,0,0,0,0,0,-2.6027,-2.6029,-2.6044,-2.6028,-2.6028,-2.6056,-2.601,-2.6004,-2.6007,-2.6001,-2.5989,-2.5985,-2.5965,-2.599,-2.5993,-2.6019,-2.5963,-2.6055,-2.6059,-2.6062,-2.6117,-2.6126,-2.6133,0,0,0,0,0,-2.6027,-2.6061,-2.6045,-2.6046,-2.6046,-2.6058,-2.6057,-2.6033,-2.6009,-2.6025,-2.6012,-2.5985,-2.6015,-2.5993,-2.5995,-2.6022,-2.6053,-2.6058,-2.6062,-2.6113,-2.6124,-2.6133,0,0,0,0,0,0,-2.608,-2.6058,-2.604,-2.607,-2.6066,-2.6048,-2.6067,-2.6045,-2.6048,-2.6043,-2.6014,-2.6011,-2.6041,-2.6034,-2.601,-2.6065,-2.603,-2.6035,-2.6068,-2.6078,-2.6086,-2.6087,-2.5964,0,0,0,0,0,-2.6095,-2.6106,-2.6086,-2.6115,-2.6114,-2.6091,-2.6095,-2.6077,-2.6072,-2.607,-2.6059,-2.6056,-2.6065,-2.6071,-2.6078,-2.6116,-2.6114,-2.6136,-2.6145,-2.6152,-2.6156,-2.6178,-2.6188,-2.6079,-2.6079,-2.6079,0,0,-2.6127,-2.6116,-2.6124,-2.6125,-2.612,-2.6133,-2.609,-2.6105,-2.6114,-2.6073,-2.6095,-2.6088,-2.6083,-2.6115,-2.6128,-2.611,-2.6186,-2.6157,-2.6163,-2.6164,-2.6183,-2.6194,-2.6203,-2.6082,-2.6082,-2.6081,0,0,-2.6191,-2.6183,-2.6206,-2.6203,-2.6196,-2.6181,-2.6187,-2.6174,-2.6167,-2.6189,-2.6159,-2.6171,-2.6186,-2.6184,-2.6185,-2.6253,-2.6229,-2.6256,-2.6299,-2.632,-2.6329,-2.6336,-2.6361,-2.637,-2.6261,-2.6261,-2.6261,0,-2.623,-2.6247,-2.6221,-2.6239,-2.6241,-2.6205,-2.6229,-2.6227,-2.6223,-2.6226,-2.6206,-2.6226,-2.622,-2.6252,-2.6268,-2.627,-2.6277,-2.6256,-2.633,-2.6337,-2.6343,-2.6367,-2.6376,-2.6264,-2.6264,-2.6264,-2.6263,0,-2.6297,-2.631,-2.633,-2.6327,-2.6331,-2.6352,-2.6331,-2.6339,-2.6322,-2.631,-2.6335,-2.6327,-2.6332,-2.6339,-2.6322,-2.6369,-2.6358,-2.6335,-2.6298,-2.6358,-2.6379,-2.6387,-2.6269,-2.6268,-2.6267,-2.6266,0,0,-2.6391,-2.6376,-2.6384,-2.6383,-2.6374,-2.6384,-2.6405,-2.641,-2.6418,-2.6418,-2.6435,-2.645,-2.6429,-2.643,-2.6414,-2.6432,-2.6487,-2.6406,-2.6406,-2.6422,-2.6541,-2.6558,-2.6568,-2.6472,-2.6474,-2.6475,-2.6541,0,-2.6452,-2.6484,-2.6463,-2.65,-2.6512,-2.648,-2.6498,-2.6496,-2.6486,-2.6496,-2.6486,-2.6498,-2.6469,-2.647,-2.6487,-2.6477,-2.6511,-2.6472,-2.6489,-2.649,-2.649,-2.6579,-2.6597,-2.6659,-2.6549,-2.6551,-2.6552,0,-2.6525,-2.6529,-2.6567,-2.6558,-2.6562,-2.6578,-2.6583,-2.6593,-2.6591,-2.6583,-2.6586,-2.6565,-2.6587,-2.6553,-2.6583,-2.6557,-2.6563,-2.656,-2.6562,-2.6562,-2.6523,-2.6581,-2.6678,-2.6688,-2.6564,-2.6563,-2.6562,0,-2.6591,-2.6605,-2.6629,-2.663,-2.662,-2.6632,-2.6629,-2.6625,-2.663,-2.6635,-2.6639,-2.6646,-2.665,-2.6658,-2.664,-2.6617,-2.6673,-2.6637,-2.6668,-2.6669,-2.668,-2.6679,-2.6779,-2.6686,-2.6685,-2.6685,-2.6685,0,-2.6659,-2.6684,-2.6658,-2.6673,-2.6701,-2.6678,-2.6706,-2.67,-2.6697,-2.6712,-2.6685,-2.67,-2.6677,-2.669,-2.6677,-2.6704,-2.6706,-2.6701,-2.6698,-2.6703,-2.6704,-2.6706,-2.6701,-2.6688,-2.6687,-2.6687,-2.6686,0,-2.6736,-2.6719,-2.6744,-2.6734,-2.6732,-2.6753,-2.6744,-2.6759,-2.6749,-2.6768,-2.6771,-2.6756,-2.677,-2.6754,-2.6767,-2.6758,-2.6796,-2.6786,-2.6796,-2.6793,-2.6825,-2.6822,-2.6929,-2.6942,-2.684,-2.6841,-2.6842,0,-2.678,-2.6798,-2.679,-2.6798,-2.6796,-2.6809,-2.6815,-2.6794,-2.6801,-2.6802,-2.6817,-2.6829,-2.6837,-2.6862,-2.6853,-2.6864,-2.6853,-2.689,-2.6855,-2.6861,-2.6854,-2.6853,-2.6855,-2.6897,-2.6898,-2.6899,-2.69,0,-2.6861,-2.6853,-2.6861,-2.6869,-2.6876,-2.6881,-2.6883,-2.6892,-2.6871,-2.6881,-2.6895,-2.6902,-2.6916,-2.6928,-2.6937,-2.6935,-2.6915,-2.6912,-2.6919,-2.6925,-2.693,-2.6928,-2.6815,-2.6909,-2.6908,-2.6907,-2.6907,-2.6907,-2.6922,-2.6938,-2.6935,-2.6946,-2.6947,-2.6951,-2.6964,-2.6957,-2.6968,-2.6977,-2.6965,-2.6983,-2.6984,-2.6993,-2.6994,-2.7009,-2.6993,-2.7004,-2.7007,-2.701,-2.7015,-2.6929,-2.701,-2.701,-2.701,-2.701,-2.7009,0,-2.7002,-2.6999,-2.701,-2.7015,-2.7025,-2.7006,-2.7008,-2.7018,-2.7034,-2.7036,-2.7045,-2.7063,-2.7076,-2.7069,-2.7081,-2.7095,-2.7086,-2.7098,-2.7097,-2.7097,-2.7028,-2.702,-2.7105,-2.7105,-2.7105,-2.7105,-2.7105,-2.7105,-2.7044,-2.707,-2.7062,-2.7088,-2.7086,-2.7102,-2.7106,-2.711,-2.7112,-2.7132,-2.7143,-2.7139,-2.7138,-2.715,-2.7162,-2.716,-2.7165,-2.7182,-2.7176,-2.7111,-2.7102,-2.7093,-2.7085,-2.7183,-2.7183,-2.7244,-2.7245,-2.7245]},{"header":{"parameterUnit":"m.s-1","parameterCategory":1,"la1":30.2991,"la2":30.254,"lo1":-89.0895,"lo2":-89.0444,"dy":0.0017,"dx":0.0017,"nx":28,"ny":28,"refTime":"2024-06-16T03:00:00:Z","depth":0,"parameterNumber":3,"parameterNumberName":"V-component_of_WINDS"},"data":[0,0,0,0,0,0,0,0,0,0,0,0,0,0,0,0,0,0,0,0,0,0,0,0,0,0,0,0,0,0,0,0,0,0,0,0,0,0,0,0,0,0,0,0,0,0,0,0,0,0,0,0,0,0,0,0,0,0,2.0616,2.0616,0,2.064,2.064,2.0641,2.0689,2.069,2.0691,2.0692,2.0714,2.0714,2.0714,0,0,0,0,0,0,0,0,0,0,0,0,0,2.061,2.061,2.0616,2.0616,2.0617,2.064,2.064,2.0641,2.0689,2.069,2.0691,2.0692,2.0714,2.0714,2.0714,0,0,0,0,0,0,0,0,0,0,0,0,0,2.0621,2.061,2.0616,2.0643,2.0646,2.064,2.064,2.0641,2.0688,2.069,2.0691,2.0693,2.0714,2.0714,2.0714,2.0682,0,0,2.0712,2.0712,0,0,0,0,0,0,0,0,2.062,2.0621,2.0639,2.0642,2.0645,2.0663,2.0647,2.0654,2.0688,2.0672,2.0692,2.0693,2.0696,2.0697,2.0698,2.0683,2.0684,2.0712,2.0712,2.0712,2.0712,0,0,0,0,0,0,0,2.062,2.062,2.0626,2.0639,2.0643,2.0654,2.0657,2.0648,2.0676,2.0674,2.0677,2.068,2.0698,2.0699,2.0699,2.0684,2.0712,2.0712,2.0711,2.0711,2.0644,2.0642,0,0,0,0,0,0,2.0615,2.0619,2.0625,2.0626,2.0636,2.0653,2.0656,2.0656,2.0676,2.068,2.0678,2.0682,2.0699,2.07,2.07,2.0664,2.0712,2.0711,2.0711,2.0645,2.0643,2.0642,0,0,0,0,0,0,2.0615,2.0615,2.0624,2.0624,2.0626,2.0651,2.065,2.0655,2.0656,2.0679,2.0684,2.0674,2.07,2.0701,2.0686,2.0665,2.0711,2.0711,2.0647,2.0645,2.0643,2.0592,0,0,0,0,0,0,2.0614,2.0615,2.0603,2.0623,2.0626,2.061,2.0649,2.0655,2.0656,2.066,2.0677,2.0681,2.0701,2.0687,2.0686,2.0666,2.071,2.0649,2.0646,2.0643,2.0595,2.0588,2.0581,0,0,0,0,0,2.0614,2.0588,2.0602,2.0603,2.0612,2.0608,2.061,2.0634,2.0654,2.0642,2.0657,2.0681,2.0668,2.0685,2.0684,2.0664,2.065,2.0647,2.0644,2.0598,2.0589,2.0582,0,0,0,0,0,0,2.0564,2.0591,2.0607,2.0587,2.0595,2.0617,2.0603,2.0624,2.0626,2.063,2.0659,2.0662,2.0644,2.0652,2.067,2.0634,2.0663,2.0659,2.0629,2.062,2.0614,2.0611,2.071,0,0,0,0,0,2.0551,2.0546,2.057,2.0549,2.0552,2.0577,2.0576,2.0594,2.0603,2.0607,2.0621,2.0628,2.0626,2.0624,2.0623,2.0597,2.0601,2.0583,2.0576,2.057,2.0566,2.0552,2.0544,2.0631,2.0631,2.0631,0,0,2.0523,2.0537,2.0532,2.0539,2.0548,2.0542,2.0579,2.0571,2.0567,2.0605,2.0592,2.0603,2.0613,2.0592,2.0584,2.0599,2.0543,2.0566,2.0561,2.056,2.0548,2.054,2.0532,2.0628,2.0629,2.0629,0,0,2.0469,2.0479,2.0463,2.0471,2.0484,2.05,2.0496,2.0515,2.0523,2.0511,2.0539,2.0534,2.053,2.0536,2.0538,2.0487,2.0508,2.0486,2.045,2.0436,2.0429,2.0423,2.0404,2.0396,2.0482,2.0482,2.0482,0,2.0432,2.0425,2.0452,2.0442,2.0444,2.048,2.0463,2.0469,2.0481,2.0481,2.0498,2.0493,2.0503,2.0484,2.0471,2.0472,2.0468,2.0484,2.0428,2.0422,2.0417,2.0399,2.0392,2.0479,2.0479,2.048,2.048,0,2.0379,2.0373,2.0359,2.0369,2.037,2.0357,2.0381,2.0379,2.0396,2.0411,2.0397,2.041,2.0412,2.0409,2.0427,2.0392,2.0401,2.0423,2.0452,2.0405,2.0389,2.0382,2.0475,2.0476,2.0477,2.0478,0,0,2.0293,2.032,2.0314,2.0319,2.0335,2.0331,2.0319,2.0322,2.0319,2.0325,2.0315,2.0311,2.0331,2.0334,2.0352,2.034,2.0297,2.0363,2.0363,2.0349,2.0259,2.0242,2.0234,2.0312,2.0311,2.031,2.0258,0,2.0242,2.0224,2.0248,2.0224,2.0219,2.0253,2.0243,2.0251,2.0264,2.0261,2.0276,2.0272,2.0299,2.03,2.029,2.0304,2.0279,2.0309,2.0302,2.0301,2.0297,2.0225,2.0207,2.0158,2.0252,2.0251,2.025,0,2.018,2.0184,2.016,2.0178,2.0176,2.0167,2.0171,2.0168,2.0178,2.0188,2.0192,2.0214,2.0203,2.0232,2.0217,2.0236,2.0235,2.0242,2.024,2.024,2.0272,2.0222,2.0143,2.0135,2.024,2.0241,2.0242,0,2.0119,2.0118,2.0104,2.0107,2.0128,2.012,2.0128,2.014,2.014,2.0143,2.0144,2.0146,2.0146,2.0147,2.0169,2.0189,2.015,2.0182,2.0158,2.0157,2.0147,2.0147,2.0066,2.0148,2.0148,2.0148,2.0149,0,2.0059,2.0042,2.0076,2.0067,2.0049,2.0077,2.0059,2.007,2.0081,2.0074,2.0103,2.0096,2.0125,2.0121,2.0138,2.0122,2.0123,2.013,2.0134,2.0127,2.0126,2.0125,2.0129,2.0147,2.0147,2.0147,2.0148,0,1.9987,2.0009,1.9995,2.0016,2.0021,2.0007,2.0024,2.0016,2.0032,2.0022,2.0022,2.0045,2.0042,2.0064,2.0064,2.0076,2.0051,2.0062,2.0048,2.0051,2.0025,2.0026,1.9939,1.9929,2.0019,2.0018,2.0017,0,1.9946,1.9934,1.9954,1.9952,1.9959,1.9955,1.9955,1.9982,1.9981,1.9992,1.9982,1.9981,1.9982,1.9974,1.9991,1.9991,2.0002,1.9971,2.0002,1.9994,2.0,2.0,1.9998,1.9964,1.9963,1.9962,1.9962,0,1.9872,1.9883,1.9883,1.9886,1.9886,1.989,1.9896,1.9892,1.9921,1.9918,1.9915,1.9916,1.9916,1.9915,1.9918,1.9926,1.9948,1.9952,1.9946,1.9938,1.9929,1.9932,2.0029,1.9954,1.9954,1.9955,1.9955,1.9956,1.9814,1.9805,1.9817,1.9815,1.9823,1.9827,1.9821,1.9835,1.9834,1.9836,1.9853,1.9846,1.9857,1.9864,1.9869,1.9864,1.9879,1.9871,1.9868,1.9866,1.9861,1.9931,1.9865,1.9865,1.9866,1.9866,1.9866,0,1.974,1.975,1.9748,1.9755,1.9754,1.9776,1.9784,1.9781,1.9775,1.9783,1.9783,1.9779,1.9778,1.9794,1.9795,1.9787,1.9797,1.9786,1.9787,1.9788,1.9848,1.9853,1.9778,1.9778,1.9778,1.9778,1.9778,1.9778,1.9701,1.9687,1.97,1.9689,1.9699,1.9694,1.9696,1.97,1.9706,1.9701,1.97,1.9711,1.9722,1.9724,1.9723,1.9728,1.9726,1.9712,1.972,1.9775,1.9784,1.9792,1.9796,1.9711,1.9711,1.966,1.9659,1.9659]}]]